www.pogodaiklimat.ru

Архив погоды в Познани (Польша)

Время
(UTC), дата
16 21.05
17 21.05
18 21.05
19 21.05
20 21.05
21 21.05
22 21.05
23 21.05
00 22.05
01 22.05
02 22.05
03 22.05
04 22.05
05 22.05
06 22.05
07 22.05
08 22.05
09 22.05
10 22.05
11 22.05
12 22.05
13 22.05
14 22.05
15 22.05
16 22.05
17 22.05
18 22.05
19 22.05
20 22.05
21 22.05
22 22.05
23 22.05
00 23.05
01 23.05
02 23.05
03 23.05
04 23.05
05 23.05
06 23.05
07 23.05
08 23.05
09 23.05
10 23.05
11 23.05
12 23.05
13 23.05
14 23.05
15 23.05
16 23.05
17 23.05
18 23.05
19 23.05
20 23.05
21 23.05
22 23.05
23 23.05
00 24.05
01 24.05
02 24.05
03 24.05
04 24.05
05 24.05
06 24.05
07 24.05
08 24.05
09 24.05
10 24.05
11 24.05
12 24.05
13 24.05
14 24.05
15 24.05
16 24.05
17 24.05
18 24.05
19 24.05
20 24.05
21 24.05
22 24.05
23 24.05
00 25.05
01 25.05
02 25.05
03 25.05
04 25.05
05 25.05
06 25.05
07 25.05
08 25.05
09 25.05
10 25.05
11 25.05
12 25.05
13 25.05
14 25.05
15 25.05
16 25.05
17 25.05
18 25.05
19 25.05
20 25.05
21 25.05
22 25.05
23 25.05
00 26.05
01 26.05
02 26.05
03 26.05
04 26.05
05 26.05
06 26.05
07 26.05
08 26.05
09 26.05
10 26.05
11 26.05
12 26.05
13 26.05
14 26.05
15 26.05
16 26.05
17 26.05
18 26.05
19 26.05
20 26.05
21 26.05
22 26.05
23 26.05
00 27.05
01 27.05
02 27.05
03 27.05
04 27.05
05 27.05
06 27.05
07 27.05
08 27.05
09 27.05
10 27.05
11 27.05
12 27.05
13 27.05
14 27.05
15 27.05
16 27.05
17 27.05
18 27.05
19 27.05
20 27.05
21 27.05
22 27.05
23 27.05
00 28.05
01 28.05
02 28.05
03 28.05
04 28.05
05 28.05
06 28.05
07 28.05
08 28.05
09 28.05
10 28.05
11 28.05
12 28.05
13 28.05
14 28.05
15 28.05
16 28.05
Ветер
(напр.,м/с)
Видим. Явления Облачность Т
(С)
Тd
(С)
f
(%)
Тe
(С)
Тes
(С)
Комфортность P
(гПа)
Po
(гПа)
Тmin
(С)
Tmax
(С)
R
(мм)
R24
(мм)
S
(см)
В 7 50 км 9/1 2000 м
[Sc diur, vesp Cs]
+26.0 +9.8 36 +27 +27 жарко 1009.9 999.7
В 6 50 км 9/1 2000 м
[Sc diur, vesp Cs]
+25.5 +9.7 37 +26 +27 жарко 1009.7 999.5
В 4 50 км 9/1 1500 м
[Cu med, cong Cs]
+24.0 +9.9 41 +25 +25 комфорт 1009.7 999.5 +18.7 +27.5
В 3 50 км 8/0
[Cs]
+22.3 +10.4 47 +24 +24 комфорт 1009.9 999.6
В 4 50 км 6/0
[Cs]
+21.2 +11.2 53 +23 +23 комфорт 1009.9 999.6
В 4 50 км 4/0
[Cs]
+19.7 +11.7 60 +21 +21 комфорт 1010.0 999.6
В 5 50 км 8/0
[Cs]
+19.8 +12.1 61 +21 +21 комфорт 1009.9 999.5
В 4 {9} 40 км 4/0
[Cs]
+18.6 +11.7 64 +19 +19 тепло 1009.6 999.2
В 4 {9} 40 км 9/0
[Ac und]
+18.6 +11.7 64 +19 +19 тепло 1009.5 999.1
В 4 40 км 9/0
[Ac trans]
+18.4 +11.5 64 +19 +19 тепло 1009.3 998.9
ЮВ 5 40 км 8/0
[Ac trans]
+18.2 +11.0 63 +18 +18 тепло 1009.0 998.6
В 4 45 км 8/0
[Ac trans]
+17.9 +11.5 66 +18 +18 тепло 1008.7 998.3
В 6 40 км 5/0
[Ac trans]
+17.9 +12.1 69 +17 +18 тепло 1008.7 998.3
ЮВ 5 40 км 3/0
[Ac trans]
+19.4 +13.1 67 +21 +21 комфорт 1008.5 998.1
В 6 45 км 4/0
[Ac trans]
+21.7 +13.6 60 +24 +26 комфорт 1008.2 997.9 +17.6 +24.0
В 6 50 км 5/0
[Ac und]
+23.2 +13.9 56 +27 +29 душно 1008.2 997.8
ЮВ 6 {12} 50 км 6/0
[Ac cast]
+24.9 +14.1 51 +27 +30 жарко 1008.0 997.7
ЮВ 7 {12} 50 км 5/1 1500 м
[Cu hum Ac lent]
+26.0 +14.1 48 +28 +31 жарко 1007.9 997.6
ЮВ 8-13 {13} 50 км 5/1 1500 м
[Cu med, cong Ac lent]
+25.8 +13.0 45 +28 +29 жарко 1007.8 997.5
ЮВ 7 50 км 6/4 2000 м
[Cu med, cong Ac lent]
+26.8 +13.5 44 +29 +31 жарко 1007.5 997.3
ЮВ 6 {13} 50 км 9/4 1500 м
[Cu med, cong Ac cuf]
+26.3 +13.4 45 +28 +30 жарко 1007.3 997.0
ЮВ 5 45 км гроза, ливневой дождь 9/6 1000 м
[Cb cap Ac cuf]
+25.0 +13.5 49 +27 +28 жарко 1007.0 996.7
Ю 4 24 км слаб. ливневой дождь, в посл. час гроза 9/9 1000 м
[Cb cap]
+21.4 +17.4 78 +25 +26 комфорт 1007.1 996.7
Ю 5 20 км слаб. ливневой дождь {гроза} 9/9 1000 м
[Cb cap]
+20.6 +16.8 79 +24 +24 комфорт 1007.6 997.1
ЮВ 5 15 км слаб. ливневой дождь, в посл. час гроза 9/9 300 м
[Cb cap]
+19.3 +17.3 88 +21 +21 комфорт 1008.4 997.9
Ю 4 17 км слаб. ливневой дождь 9/9 300 м
[Cb cap]
+18.5 +17.2 92 +19 +19 тепло 1007.8 997.3
ЮВ 3 30 км слаб. ливневой дождь {гроза} 10/5 1000 м
[Cb cap Ac As]
+17.8 +16.0 89 +18 +18 тепло 1009.1 998.5 +17.8 +27.9 1
ЮВ 3 25 км слаб. ливневой дождь 10/4 1500 м
[Cb cap Ac As]
+17.2 +15.9 92 +17 +17 по сезону 1009.9 999.3
В 2 30 км в посл. час ливневой дождь 10/0
[Ac As]
+17.0 +15.9 93 +17 +17 тепло 1009.9 999.3
ЮЗ 1 13 км {ливн. дождь} 10/6 300 м
[Sc Ac As]
+17.3 +16.3 94 +18 +18 тепло 1010.1 999.5
ЮЗ 1 11 км слаб. дождь 10/9 600 м
[Sc]
+17.3 +16.3 94 +18 +18 тепло 1010.2 999.6
ЮЗ 2 7000 м в посл. час дождь 10/6 600 м
[Sc Ac As]
+17.1 +16.3 95 +17 +17 тепло 1009.9 999.3
З 2 11 км {ливн. дождь, дождь} 9/5 120 м
[Sc Ac As]
+16.7 +15.9 95 +17 +17 тепло 1010.1 999.5 0.6
З 2 20 км 9/9 120 м
[St]
+16.4 +15.4 94 +16 +16 тепло 1010.4 999.8
З 2 20 км 10/9 200 м
[Sc]
+16.0 +14.7 92 +16 +16 тепло 1011.0 1000.3
З 2 12 км слаб. ливневой дождь 10/9 200 м
[Cb cap]
+15.8 +14.7 93 +16 +16 тепло 1011.1 1000.4
З 4 10 км слаб. ливневой дождь 10/9 180 м
[Cb cap]
+15.5 +14.5 94 +14 +14 тепло 1011.3 1000.6
З 4 4000 м слаб. ливневой дождь 10/9 180 м
[Cb cap]
+15.3 +14.7 96 +14 +14 тепло 1011.6 1000.9
З 4 3500 м слаб. ливневой дождь 10/9 150 м
[Cb cap]
+15.4 +14.8 96 +14 +15 тепло 1012.1 1001.4 +15.2 +17.8 3 4.6
З 4 2700 м слаб. ливневой дождь 10/9 120 м
[Cb cap]
+15.6 +15.0 96 +15 +15 тепло 1012.4 1001.7
З 5 8000 м дождь {ливн. дождь} 10/9 100 м
[Frnb]
+15.7 +14.6 93 +14 +15 тепло 1012.8 1002.1
З 4 15 км в посл. час дождь 10/9 300 м
[St]
+16.5 +15.0 91 +16 +16 по сезону 1013.3 1002.6
З 5 26 км 10/9 300 м
[Cb cap]
+17.2 +14.3 83 +17 +17 тепло 1013.8 1003.1
З 5 25 км 10/9 300 м
[Sc]
+17.6 +13.9 79 +17 +17 тепло 1014.4 1003.7
СЗ 5 20 км {ливн. дождь, дождь} 9/9 600 м
[Sc]
+18.3 +14.0 76 +18 +19 по сезону 1014.7 1004.0 2
З 2 20 км 9/9 1000 м
[Sc]
+18.6 +13.9 74 +20 +21 тепло 1014.8 1004.2
З 3 23 км 9/9 600 м
[Cu Sc]
+18.9 +14.0 73 +20 +21 тепло 1015.2 1004.6
З 2 28 км 9/9 600 м
[Cu Sc]
+18.5 +13.6 73 +20 +20 тепло 1015.7 1005.0
ЮЗ 2 25 км 9/9 2000 м
[Sc]
+18.3 +14.0 76 +19 +20 тепло 1016.1 1005.4
З 1 23 км 9/0
[Ac trans]
+18.1 +14.0 77 +19 +20 тепло 1016.3 1005.6
З 2 20 км 9/0
[Ac trans]
+17.9 +14.2 79 +18 +19 тепло 1016.6 1005.9 +15.2 +19.2 2
ЮВ 1 20 км 9/3 1500 м
[Sc Ac trans]
+17.3 +14.6 84 +18 +18 тепло 1017.0 1006.3
СЗ 1 12 км 9/0
[Ac trans]
+16.4 +14.4 88 +17 +17 по сезону 1017.6 1006.8
СЗ 1 12 км 9/5 1500 м
[Sc Ac trans]
+16.5 +14.7 89 +17 +17 тепло 1018.1 1007.3
С 1 8000 м туман поземный 5/0
[Ac trans]
+15.0 +13.7 92 +15 +15 тепло 1018.3 1007.5
штиль 0 7000 м туман поземный 5/0
[Ac trans Ci fib]
+14.1 +13.1 94 +14 +14 тепло 1018.5 1007.7
СЗ 1 8000 м туман поземный 9/0
[Ac As]
+13.8 +12.9 94 +14 +14 тепло 1018.9 1008.0
СВ 1 6000 м дымка 9/0
[Ac As]
+14.7 +14.1 96 +15 +15 тепло 1019.3 1008.5
В 3 11 км 9/0
[Ac As]
+15.4 +14.1 92 +15 +15 тепло 1019.5 1008.7
В 3 20 км 9/0
[Ac trans]
+15.1 +13.1 88 +14 +14 тепло 1019.6 1008.8
В 2 30 км 9/0
[Ac trans]
+15.8 +13.1 84 +16 +16 тепло 1019.6 1008.8
СВ 4 45 км 6/0
[Ac trans Ci fib]
+17.5 +12.4 72 +17 +18 тепло 1019.6 1008.9
СВ 6 50 км 5/1 600 м
[Cu hum Ac trans Cc]
+17.8 +12.5 71 +17 +18 тепло 1019.7 1009.0 +13.3 +18.0 2.3
В 5 50 км 9/1 600 м
[Cu hum Ac trans Cs]
+19.0 +13.4 70 +20 +22 тепло 1019.8 1009.1
СВ 4 50 км 8/3 600 м
[Cu hum Ac trans Cs]
+19.6 +13.3 67 +21 +25 комфорт 1020.0 1009.3
СВ 5 50 км 8/8 600 м
[Cu med, cong Ac trans Ci fib]
+20.8 +14.2 66 +24 +25 комфорт 1020.0 1009.4
В 4 50 км 9/8 600 м
[Cu med, cong Ac trans Cs]
+21.0 +14.2 65 +24 +26 комфорт 1020.1 1009.5
В 4 50 км 8/6 600 м
[Cu med, cong Ac trans Cs]
+22.0 +13.6 59 +25 +28 комфорт 1019.6 1009.0
СВ 4 50 км 8/6 1000 м
[Cu med, cong Ac trans Cs]
+22.3 +13.9 59 +25 +29 комфорт 1018.9 1008.3
В 5 50 км 8/6 1000 м
[Cu med, cong Cs]
+23.6 +14.0 55 +26 +29 жарко 1018.4 1007.9
СВ 5 35 км 9/8 1000 м
[Cu med, cong Cs]
+23.1 +14.4 58 +27 +28 душно 1018.0 1007.5
СВ 4 35 км 9/1 1000 м
[Cb cap Cs]
+22.7 +15.0 62 +27 +30 душно 1017.5 1007.0
В 6 35 км 10/1 1000 м
[Cb cap Cs]
+22.6 +15.2 63 +26 +28 жарко 1017.2 1006.7
В 5 24 км 10/4 1500 м
[Cb cap Ac As Cs]
+21.1 +15.4 70 +24 +24 комфорт 1017.4 1006.8
ЮВ 5 12 км слаб. ливневой дождь, в посл. час гроза 10/9 300 м
[Cb cap]
+16.2 +14.9 92 +15 +15 по сезону 1018.1 1007.3 +16.2 +23.7 1
ЮВ 3 12 км слаб. ливневой дождь 10/9 200 м
[Cb cap]
+15.3 +14.5 95 +15 +15 по сезону 1018.0 1007.2
СВ 1 20 км в посл. час ливневой дождь 9/3 100 м
[St Ac As]
+15.1 +14.6 97 +16 +16 по сезону 1018.0 1007.2
В 3 10 км {ливн. дождь} 6/0
[Ac trans]
+14.1 +13.6 97 +13 +13 по сезону 1018.4 1007.6
В 3 10 км 3/0
[Ac trans]
+14.3 +13.8 97 +13 +13 по сезону 1018.5 1007.7
В 3 20 км 3/0
[Ci fib]
+14.1 +13.3 95 +13 +13 тепло 1018.4 1007.6
ЮВ 1 20 км {ливн. дождь} 9/9 300 м
[Sc]
+14.5 +13.9 96 +15 +15 тепло 1018.6 1007.8 7
ЮВ 3 20 км 5/5 300 м
[Sc]
+13.8 +13.2 96 +13 +13 тепло 1018.5 1007.6
ЮВ 3 12 км 9/9 200 м
[St]
+14.5 +13.7 95 +14 +14 тепло 1018.4 1007.6
В 2 9000 м дымка 10/10 100 м
[St]
+14.5 +13.9 96 +14 +14 тепло 1018.3 1007.5
ЮВ 2 9000 м дымка 8/3 100 м
[St Ac trans]
+15.3 +14.2 93 +15 +15 тепло 1018.4 1007.6
ЮВ 2 9000 м дымка 10/10 100 м
[St]
+15.3 +14.5 95 +15 +15 тепло 1018.7 1007.9
ЮЗ 2 2300 м дымка 10/10 60 м
[St]
+15.6 +15.1 97 +15 +15 тепло 1018.9 1008.1 +13.8 +16.2 7 8.5
Ю 2 7000 м дымка 9/9 100 м
[St]
+16.9 +15.6 92 +17 +18 тепло 1018.9 1008.2
ЮВ 3 15 км 3/3 300 м
[St]
+19.2 +15.5 79 +21 +27 комфорт 1019.1 1008.4
ЮВ 2 40 км 4/4 600 м
[Cu med, cong]
+21.6 +15.7 69 +25 +33 комфорт 1019.1 1008.5
Ю 2 40 км 4/4 600 м
[Cu med, cong]
+21.8 +14.9 65 +25 +35 комфорт 1019.1 1008.5
Ю 3 50 км 5/5 1000 м
[Cu med, cong]
+23.3 +14.3 57 +27 +34 душно 1018.7 1008.2
ЮВ 4 50 км 6/5 1000 м
[Cu med, cong Ci fib]
+24.4 +13.0 49 +26 +31 жарко 1018.3 1007.8
ЮВ 4 50 км 6/6 1000 м
[Cu med, cong Ci fib]
+23.8 +13.3 52 +26 +30 жарко 1017.9 1007.4
Ю 4 50 км 5/5 1500 м
[Cu med, cong Ci fib]
+24.7 +13.3 49 +27 +30 жарко 1017.5 1007.0
ЮВ 3 50 км 5/4 1500 м
[Cu med, cong Ci fib]
+24.3 +13.2 50 +26 +30 жарко 1017.0 1006.5
ЮВ 4 50 км гроза без осадков 5/3 1500 м
[Cb cap Ci sp]
+24.7 +13.3 49 +27 +29 жарко 1016.8 1006.4
ЮЗ 6 50 км в посл. час гроза 6/4 1500 м
[Cb cap Ci ing]
+22.9 +12.5 52 +26 +26 жарко 1017.3 1006.8
ЮЗ 1 50 км {гроза} 9/3 1500 м
[Cb cap Ac cuf Ci ing]
+22.2 +13.0 56 +25 +25 комфорт 1017.9 1007.4 +15.6 +25.5
З 1 50 км 9/3 1500 м
[Cb cap Ac cuf]
+20.6 +14.0 66 +24 +24 комфорт 1018.3 1007.7
Ю 2 50 км 9/0
[Ac As Ci fib]
+19.8 +13.0 65 +22 +22 комфорт 1018.6 1008.0
Ю 1 45 км 8/0
[Ac trans]
+18.6 +13.5 72 +20 +20 тепло 1018.8 1008.1
Ю 2 40 км 9/0
[Ac und]
+17.9 +13.8 77 +18 +18 тепло 1019.1 1008.4
Ю 1 40 км 9/0
[Ac trans]
+17.7 +13.8 78 +19 +19 тепло 1018.9 1008.2
ЮВ 2 30 км 4/0
[Ac trans Ci fib]
+16.5 +13.8 84 +17 +17 тепло 1019.2 1008.4
ЮВ 2 25 км 3/0
[Ac trans Ci fib]
+14.9 +13.4 91 +15 +15 тепло 1019.0 1008.2
ЮВ 1 22 км 1/0
[Ac trans Ci fib]
+13.9 +12.5 91 +14 +14 тепло 1019.1 1008.2
ЮВ 2 20 км 3/0
[Ac trans Ci fib]
+13.4 +12.5 94 +13 +13 тепло 1019.4 1008.5
ЮВ 3 28 км 3/0
[Ac trans Ci fib]
+15.5 +13.0 85 +15 +15 тепло 1019.5 1008.7
ЮВ 2 35 км 4/0
[Ac trans Ci fib]
+17.8 +12.5 71 +18 +20 тепло 1019.5 1008.8
Ю 2 50 км 6/0
[Cs]
+19.8 +13.0 65 +22 +26 комфорт 1020.0 1009.3 +13.1 +22.3
Ю 1 50 км 8/0
[Ac trans Cs]
+21.9 +12.4 55 +24 +31 комфорт 1019.9 1009.3
ЮЗ 3 50 км 8/0
[Ac trans Cs]
+22.9 +11.0 47 +25 +31 комфорт 1019.9 1009.4
Ю 3 50 км 6/1 1000 м
[Cu hum Ac trans Cs]
+24.8 +12.4 46 +27 +34 жарко 1019.8 1009.3
Ю 4 50 км 6/1 1500 м
[Cu med, cong Cs]
+25.0 +11.2 42 +26 +35 жарко 1019.6 1009.1
Ю 5 50 км 6/3 1500 м
[Cu med, cong Cs]
+25.1 +12.0 44 +27 +32 жарко 1019.6 1009.1
Ю 5 {9} 50 км 6/3 1500 м
[Cu med, cong Cs]
+26.2 +10.8 38 +27 +32 жарко 1019.3 1008.9
ЮВ 5 50 км 6/5 1500 м
[Cu med, cong Ci fib]
+25.6 +12.8 45 +27 +31 жарко 1018.9 1008.5
Ю 4 {10} 50 км в посл. час ливневой дождь 6/5 1000 м
[Cb cap Ci fib]
+25.6 +12.1 43 +27 +31 жарко 1018.7 1008.3
Ю 5 {10} 50 км {ливн. дождь} 8/5 1500 м
[Cb cap Ac cuf Ci fib]
+26.3 +11.6 40 +28 +29 жарко 1018.3 1007.9
З 6 {9} 50 км 9/6 1500 м
[Cb cap Ac cuf Ci fib]
+22.8 +12.1 51 +25 +26 комфорт 1018.9 1008.4
С 2 50 км 9/3 1500 м
[Cb cap Ac As Ci sp]
+21.9 +13.0 57 +25 +25 комфорт 1019.1 1008.5
В 2 {10} 50 км {ливн. дождь} 9/3 1500 м
[Cb cap Ac trans Cs]
+20.9 +13.6 63 +24 +24 комфорт 1019.3 1008.7 +19.8 +27.3 0.0
В 1 50 км 9/0
[Ac und]
+20.7 +13.4 63 +24 +24 комфорт 1019.5 1008.9
ЮВ 5 40 км 9/3 1500 м
[Cb cap Ac trans]
+21.4 +13.1 59 +24 +24 комфорт 1020.1 1009.5
Ю 5 {11} 50 км 6/1 1500 м
[Cb cap Ac trans Cs]
+20.0 +12.2 61 +22 +22 комфорт 1020.5 1009.8
ЮВ 3 50 км 5/0
[Ac trans Cs]
+19.1 +11.9 63 +20 +20 тепло 1020.0 1009.3
ЮВ 2 50 км 4/0
[Cs]
+16.9 +11.8 72 +17 +17 тепло 1019.8 1009.0
ЮВ 4 {11} 50 км 5/0
[Cs]
+18.1 +11.9 67 +18 +18 тепло 1019.7 1009.0
ЮВ 4 50 км 5/0
[Ac trans Cs]
+17.9 +11.5 66 +18 +18 тепло 1019.8 1009.1
ЮВ 2 50 км 6/0
[Ac trans Ci fib]
+16.5 +12.1 75 +17 +17 тепло 1019.5 1008.7
Ю 3 50 км 4/0
[Ac trans]
+16.8 +12.1 74 +17 +17 тепло 1019.7 1008.9
Ю 3 45 км 3/0
[Ac trans Ci fib]
+17.4 +12.3 72 +17 +18 тепло 1019.5 1008.8
ЮВ 4 50 км 4/0
[Ac trans Ci fib]
+18.8 +12.3 66 +20 +21 тепло 1019.6 1008.9
Ю 3 50 км 4/0
[Ac trans Ci fib]
+20.1 +11.8 59 +22 +25 комфорт 1019.4 1008.8 +15.4 +21.7 0.0
Ю 3 50 км 6/0
[Ac cast Ci fib]
+21.2 +12.6 58 +23 +27 комфорт 1019.5 1008.9
Ю 3 50 км 6/0
[Ac cast Ci fib]
+23.0 +12.6 52 +26 +32 жарко 1019.2 1008.7
Ю 4 50 км 8/0
[Ac trans Cs]
+24.3 +12.6 48 +26 +33 жарко 1018.9 1008.4
Ю 4 50 км 6/1 1500 м
[Cu hum Cs]
+25.3 +12.8 46 +27 +36 жарко 1018.6 1008.2
Ю 4 50 км 6/3 1500 м
[Cu med, cong Cs]
+26.1 +12.9 44 +28 +35 жарко 1018.1 1007.7
Ю 4 {12} 50 км 6/4 1500 м
[Cu med, cong Cs]
+26.2 +11.9 41 +28 +33 жарко 1017.7 1007.3
Ю 6 50 км 8/4 1000 м
[Cu med, cong Cs]
+27.1 +10.7 36 +28 +31 жарко 1017.2 1006.8
Ю 5 50 км 8/3 1500 м
[Cb cap Cs]
+26.6 +9.9 35 +27 +30 жарко 1016.3 1005.9
Ю 5 50 км 9/9 1500 м
[Cb cap]
+26.6 +9.9 35 +27 +28 жарко 1016.3 1005.9
ЮЗ 2 {12} 50 км 10/1 1500 м
[Cb cap Ac As]
+23.1 +10.8 46 +25 +26 комфорт 1016.3 1005.8
З 1 50 км 9/0
[Ac As]
+23.6 +11.0 45 +25 +26 комфорт 1016.4 1005.9
С 2 {12} 50 км 9/1 1500 м
[Cu med, cong Ac trans Cs]
+20.3 +13.5 65 +23 +23 комфорт 1016.6 1006.0 +20.1 +27.8
СВ 3 45 км 10/0
[Ac und]
+19.1 +14.4 74 +21 +21 комфорт 1016.8 1006.2
С 2 50 км слаб. ливневой дождь 10/8 600 м
[Cb cap Ac trans]
+18.9 +13.3 70 +20 +20 тепло 1017.1 1006.4
В 3 50 км в посл. час ливневой дождь 9/0
[Ac und]
+19.3 +13.0 67 +21 +21 комфорт 1016.4 1005.8
В 3 50 км 5/0
[Ac trans Cs]
+17.6 +13.5 77 +18 +18 тепло 1016.4 1005.7
В 2 40 км 9/0
[Ac trans Cs]
+17.1 +13.8 81 +17 +17 тепло 1016.0 1005.3
В 3 35 км {ливн. дождь} 8/0
[Ac trans Cs]
+16.8 +14.3 85 +17 +17 тепло 1015.8 1005.1 0.0
ЮВ 1 35 км 4/0
[Ac trans Cs]
+16.2 +13.1 82 +17 +17 тепло 1015.5 1004.8
ЮВ 2 25 км 4/0
[Ac trans Ci fib]
+15.9 +13.9 88 +16 +16 тепло 1015.1 1004.4
ЮВ 2 20 км 4/0
[Ac trans Ci fib]
+14.8 +12.5 86 +14 +14 тепло 1015.2 1004.4
ЮВ 2 15 км 3/0
[Ac trans Ci fib]
+16.8 +13.9 83 +17 +18 тепло 1015.1 1004.4
ЮВ 4 20 км 3/0
[Ac trans Ci fib]
+18.7 +13.3 71 +19 +21 тепло 1014.7 1004.1
Ю 3 35 км 3/0
[Ac cast Ci fib]
+20.3 +12.8 62 +23 +26 комфорт 1014.7 1004.1 +14.7 +20.4 0.0 0.0
Ю 3 50 км 3/0
[Ac cast Ci fib]
+22.8 +13.6 56 +26 +32 жарко 1014.7 1004.2
Ю 3 50 км 4/0
[Ac cast Ci fib]
+24.8 +12.4 46 +27 +35 жарко 1014.7 1004.3
ЮЗ 4 40 км 4/1 1500 м
[Cu med, cong Ci fib]
+25.0 +13.5 49 +27 +35 жарко 1014.8 1004.4
З 3 50 км 4/3 1500 м
[Cu med, cong Ci fib]
+25.8 +11.9 42 +27 +36 жарко 1014.6 1004.2
З 3 20 км гроза, ливневой дождь 9/9 450 м
[Cb cap]
+23.3 +14.6 58 +27 +29 душно 1014.6 1004.1
ЮВ 5 23 км гроза, ливневой дождь 9/9 1000 м
[Cb cap]
+18.2 +13.7 75 +18 +19 тепло 1014.6 1003.9 0.3
ЮЗ 5 1800 м гроза с градом {ливн. дождь} 10/10 60 м
[Cb cap]
+16.8 +14.3 85 +16 +16 тепло 1015.9 1005.2
СЗ 3 {11} 16 км гроза, ливневой дождь 10/10 1500 м
[Cb cap]
+17.7 +16.2 91 +18 +18 тепло 1016.0 1005.3
СЗ 5 {11} 25 км гроза, ливневой дождь 10/9 1500 м
[Cb cap]
+17.0 +15.7 92 +16 +16 тепло 1015.6 1004.9
С 3 18 км слаб. ливневой дождь, в посл. час гроза 10/9 270 м
[Cb cap]
+16.1 +14.8 92 +16 +16 тепло 1016.7 1005.9
Местоположение метеостанции Познань (Польша): широта 52.42 долгота 16.85 высота над уровнем моря 84 м.
В архиве по умолчанию представлена погода в Познани за последнюю неделю. Архивные данные за месяц целиком и за предыдущие месяцы, начиная с января 2011 года, Вы можете получить, выбрав интересующий диапазон дат из раскрывающегося списка и нажав кнопку "Найти!".
*Определитесь, кто Вы:
Внимание! Время в таблицах - всемирное. Для получения местного времени необходимо прибавить поправку, которая равна 1 ч.
Некоторые строки с данными для отдельных станций могут быть выделены курсивом. Это означает, что фактические данные отсутствуют по различным причинам, а приведенные значения являются расчетными модельными данными для данного пункта наблюдений.
Смотрите также архив погоды в соседних городах и на ближайших метеорологических станциях:
Партнеры нашего сайта:      
Пояснения к столбцам:
  • Ветер - указаны скорость ветра в м/с - средняя за 10 мин, порывы в срок и между сроками (в фигурных скобках) и направление, откуда дует ветер: С - северный,
  • СВ - северо-восточный, В - восточный, ЮВ - юго-восточный, Ю - южный, ЮЗ - юго-западный, З - западный, СЗ - северо-западный.
  • Видимость - горизонтальная дальность видимости в метрах или километрах. При видимости от 1 до 10 км при отсутствии осадков обычно наблюдается дымка, при ухудшении видимости до 1 км и менее - туман. В сухую погоду видимость может ухудшаться дымом, пылью или мглою.
  • Явления - указаны атмосферные явления, наблюдавшиеся в срок или в последний час перед сроком; фигурными скобками обозначены явления, наблюдавшиеся между сроками (за 1-3 часа до срока); квадратными скобками обозначены град или гололедные отложения с указанием их диаметра в мм.
  • Облачность - указаны через наклонную черту общая и нижняя облачность в баллах и высота нижней границы облаков в метрах; квадратными скобками обозначены формы облаков: Ci - перистые, Cs - перисто-слоистые, Cc - перисто-кучевые, Ac - высококучевые, As - высокослоистые, Sc - слоисто-кучевые, Ns - слоисто-дождевые, Cu - кучевые, Cb - кучево-дождевые. Подробнее классификацию облаков см. в Атласе облаков (PDF).
  • T - Температура воздуха - температура, измеренная на высоте 2 м над землей.
  • Td - Температура точки росы - температура, при понижении до которой содержащийся в воздухе водяной пар достигнет насыщения.
  • f - Относительная влажность воздуха - влажноcть воздуха, измеренная на высоте 2 м над землей.
  • Te - Эффективная температура - температура, которую ощущает одетый по сезону человек в тени. Характеристика душности погоды. При расчете учитывается влияние влажности воздуха и скорости ветра на теплоощущения человека.
  • Tes - Эффективная температура на солнце - температура, которую ощущает человек, с поправкой на солнечный нагрев. Характеристика знойности погоды. Зависит от высоты солнца над горизонтом, облачности и скорости ветра. Ночью, в пасмурную погоду, а также при ветре 12 м/с и более поправка равна нулю.
  • P - Атмосферное давление - приведенное к уровню моря атмосферное давление.
  • Po - Атмосферное давление - измеренное на уровне метеостанции атмосферное давление.
  • Tmin - Минимальная температура - минимум температуры воздуха на высоте 2 м над землей.
  • Tmax - Максимальная температура - максимум температуры воздуха на высоте 2 м над землей.
  • R - Количество осадков - Количество выпавших осадков за период времени, мм. При наведении курсора мыши на число - период времени, за который выпало указанное количество осадков.
  • R24 - Количество осадков - Количество выпавших осадков за 24 часа, мм.
  • S - Снежный покров - Высота снежного покрова, см. При наведении курсора мыши на число - состояние снежного покрова и степень покрытия местности в баллах.